Regional Weather Roundup
Issued by NWS

Home | Current Version | Previous Version | Text Only | Print | Product List | Glossary On
Versions: 1 2 3 4 5 6 7 8 9 10 11 12 13 14 15 16 17 18 19 20 21 22 23 24 25 26 27 28 29 30 31 32 33 34 35 36 37 38 39 40 41 42 43 44 45 46 47 48 49 50
000
ASUS44 KFWD 270903
RWRTX
NORTH TEXAS HOURLY WEATHER ROUNDUP
NATIONAL WEATHER SERVICE FORT WORTH TX
400 AM CDT WED JUL 27 2016

NOTE: "FAIR" INDICATES FEW OR NO CLOUDS BELOW 12,000 FEET WITH NO
SIGNIFICANT WEATHER AND/OR OBSTRUCTIONS TO VISIBILITY.

TXZ118-119-271000-
DALLAS/FORT WORTH METROPLEX

CITY           SKY/WX    TMP DP  RH WIND       PRES   REMARKS
DFW AIRPORT    MOCLDY    79  72  79 SE7       29.90S
DALLAS LOVE    MOCLDY    82  73  74 S8        29.91S
FTW MEACHAM    CLEAR     81  72  74 S6        29.90F
DAL-EXECUTIVE  CLEAR     78  71  79 CALM      29.91S
FTW-ALLIANCE   CLEAR     77  72  84 S3        29.90F
FTW-NAS-JRB    CLEAR     83  71  67 SE6       29.91S
FTW-SPINKS     CLEAR     77  73  90 SE3       29.93S
ARLINGTON      CLEAR     79  73  82 SE5       29.92R
GRAND PRAIRIE  CLEAR     80  72  75 SE5       29.92S
ADDISON        CLEAR     81  74  80 SE6       29.93S
MESQUITE       CLEAR     76  75  97 SE3       29.91S
LANCASTER      CLEAR     77  72  82 CALM      29.92F
$$

TXZ091>094-102>105-117-120-121-131>134-271000-
NORTH CENTRAL TEXAS

CITY           SKY/WX    TMP DP  RH WIND       PRES   REMARKS
SHRMAN/DENISON PTCLDY    76  76 100 NE6       29.94S FOG
BOWIE          CLEAR     75  72  91 CALM      29.93S
BRIDGEPORT     CLEAR     74  74 100 CALM      29.94S
DECATUR        CLEAR     75  73  93 E5        29.94R
DENTON         PTCLDY    76  73  91 CALM      29.90F
MCKINNEY       CLEAR     77  75  93 CALM      29.92S
GREENVILLE     CLEAR     77  73  88 CALM      29.92S
ROCKWALL       CLEAR     78  74  87 S3        29.91S
TERRELL        CLEAR     78  74  87 S5        29.92S
WAXAHACHIE     CLEAR     76  75  96 SE3       29.93S
CLEBURNE       CLEAR     77  75  94 CALM      29.93F
GRANBURY       CLEAR     80  71  72 CALM      29.92F
$$

TXZ083>090-098>101-113>116-127>130-139>142-154-155-271000-
WESTERN NORTH TEXAS

CITY           SKY/WX    TMP DP  RH WIND       PRES   REMARKS
WICHITA FALLS  PTCLDY    76  71  85 SE5       29.92S
WF-KICKAPOO    CLEAR     78  71  80 E6        29.93S
VERNON         CLEAR     78  68  72 E3        29.94S
ABILENE        CLEAR     79  68  69 S7        29.96F
ABILENE-DYESS  CLEAR     79  69  70 S7        29.94F
CISCO          CLEAR     75  70  83 SW5       29.97S
GRAHAM         CLEAR     77  72  84 SE3       29.91S
MINERAL WELLS  PTCLDY    77  72  84 SE5       29.91S
STEPHENVILLE   CLEAR     75  69  80 CALM      29.97S
COMANCHE       CLEAR     76  71  83 SW3       29.95S
COLEMAN        CLEAR     76  68  75 W3        29.97S
$$

TXZ143>147-156>162-174-175-271000-
CENTRAL TEXAS

CITY           SKY/WX    TMP DP  RH WIND       PRES   REMARKS
WACO           CLEAR     78  71  79 SW7       29.92S
WACO-MCGREGOR  CLEAR     76  72  87 S3        29.94R
HILLSBORO      CLEAR     76  71  85 SE5       29.93S
CORSICANA      CLEAR     78  73  84 S5        29.94R
MEXIA          CLEAR     75  75  98 SW6       29.92S
HEARNE         CLEAR     75  73  95 CALM      29.93S
CAMERON        CLEAR     76  73  90 CALM      29.92R
TEMPLE         CLEAR     75  73  93 S7        29.93S
KILLEEN        CLEAR     74  71  90 S2        29.93R
KILLEEN-SKYLRK   N/A     75  71  87 SW3       29.94
FORT HOOD      CLEAR     74  70  86 SW5       29.91S
HAMILTON       CLEAR     75  74  99 CALM      29.95S
LAMPASAS       CLEAR     74  72  93 CALM      29.94R
$$

TXZ095>097-106>112-122>126-135>138-148>153-164>167-271000-
EAST TEXAS

CITY           SKY/WX    TMP DP  RH WIND       PRES   REMARKS
PARIS          CLEAR     75  66  73 CALM      29.92S
SULPHUR SPRNGS CLEAR     77  73  88 SW3       29.94S
MOUNT PLEASANT CLEAR     75  74  97 CALM      29.93S
GILMER         PTCLDY    77  73  88 CALM      29.93R
MINEOLA        PTCLDY    77  75  94 CALM      29.93S
TYLER          PTCLDY    78  73  84 CALM      29.93R
LONGVIEW       CLEAR     77  74  90 S5        29.92S
MARSHALL       CLEAR     73  70  92 CALM      29.94S
ATHENS         CLEAR     73  73 100 CALM      29.92S
PALESTINE      PTCLDY    75  74  97 CALM      29.95R
JACKSONVILLE     N/A     75  74  96 CALM      29.96S
HENDERSON      PTCLDY    75  75  98 CALM      29.94S
CENTER         SUNNY     78  77  95 CALM      29.93S
NACOGDOCHES    CLEAR    N/A N/A N/A CALM      29.92R
LUFKIN         PTCLDY    75  74  96 CALM      29.93R
$$

SUPPLEMENTAL OBSERVATIONS (CENTRAL)

CITY           SKY/WX    TMP DP  RH WIND       PRES   REMARKS
$$

SUPPLEMENTAL OBSERVATIONS (WEST)

CITY           SKY/WX    TMP DP  RH WIND       PRES   REMARKS
$$

SUPPLEMENTAL OBSERVATIONS (EAST)

CITY           SKY/WX    TMP DP  RH WIND       PRES   REMARKS
$$

SUPPLEMENTAL OBSERVATIONS ARE A COLLECTION OF AUTOMATED INSTRUMENTS
THAT ARE MAINTAINED BY A VARIETY OF FEDERAL AND STATE AGENCIES.
CERTAIN ELEMENTS...SUCH AS HUMIDITY VALUES AND SUSTAINED WIND
SPEEDS...MAY BE APPROXIMATED.





USA.gov is the U.S. government's official web portal to all federal, state and local government web resources and services.